Weather History for Broken Bow, NE

Change the Weather History Date:

Wednesday, July 24, 2013

  Actual Average Record
Temperature  
Mean Temperature 70 °F 74 °F  
Max Temperature 82 °F 87 °F 111 °F (1940)
Min Temperature 57 °F 62 °F 47 °F (1948)
Degree Days  
Heating Degree Days 0 0  
Month to date heating degree days 1 0  
Since 1 June heating degree days 42 46  
Cooling Degree Days 5 10  
Month to date cooling degree days 223 223  
Year to date cooling degree days 425 409  
Since 1 June cooling degree days 390 375  
Growing Degree Days 20 (Base 50)    
Moisture  
Dew Point 63 °F    
Average Humidity 76    
Maximum Humidity 100    
Minimum Humidity 51    
Precipitation  
Precipitation 0.00 in 0.08 in 0.95 in (1907)
Sea Level Pressure  
Sea Level Pressure 30.05 in    
Wind  
Wind Speed 2 mph (ESE)    
Max Wind Speed 12 mph    
Max Gust Speed 15 mph    
Visibility 9 miles    
Events      
T = Trace of Precipitation, MM = Missing Value Source: NWS Daily Summary

Daily Weather History Graph

Daily Weather History Graph

Search for Another Location

Airport:

Trip Planner

Search our weather history database for the weather conditions in past years. The results will help you decide how hot, cold, wet, or windy it might be!

Date:

Astronomy

Jul. 24, 2013 Rise Set
Actual Time 6:26 AM CDT 9:03 PM CDT
Civil Twilight 5:54 AM CDT 9:35 PM CDT
Nautical Twilight 5:14 AM CDT 10:15 PM CDT
Astronomical Twilight 4:28 AM CDT 11:00 PM CDT
Moon 10:07 PM CDT (7/24) 8:50 AM CDT (7/24)
Length of Visible Light 15h 41m
Length of Day
14h 37m
Waning Gibbous, 94% of the Moon is Illuminated
Jul 24
Waning Gibbous
Jul 29
Last Quarter
Aug 6
New
Aug 14
First Quarter
Aug 20
Full

Hourly Weather History & Observations

Time (CDT) Temp. Heat Index Dew Point Humidity Pressure Visibility Wind Dir Wind Speed Gust Speed Precip Events Conditions
12:53 AM 64.0 °F - 62.1 °F 93% 30.04 in 10.0 mi ENE 8.1 mph - N/A   Clear
1:53 AM 62.1 °F - 60.1 °F 93% 30.05 in 10.0 mi ENE 5.8 mph - N/A   Clear
2:53 AM 62.1 °F - 59.0 °F 90% 30.05 in 10.0 mi Calm Calm - N/A   Clear
3:53 AM 60.1 °F - 59.0 °F 96% 30.05 in 10.0 mi Calm Calm - N/A   Clear
4:53 AM 57.9 °F - 57.9 °F 100% 30.06 in 9.0 mi SW 4.6 mph - N/A   Clear
5:38 AM 57.2 °F - 57.2 °F 100% 30.12 in 8.0 mi NNE 4.6 mph - N/A   Mostly Cloudy
5:53 AM 57.9 °F - 57.9 °F 100% 30.08 in 7.0 mi North 3.5 mph - N/A   Mostly Cloudy
6:06 AM 57.2 °F - 57.2 °F 100% 30.13 in 6.0 mi NNW 3.5 mph - N/A   Scattered Clouds
6:53 AM 57.0 °F - 57.0 °F 100% 30.09 in 5.0 mi Calm Calm - N/A   Clear
7:53 AM 61.0 °F - 60.1 °F 97% 30.09 in 6.0 mi Calm Calm - N/A   Clear
8:53 AM 64.9 °F - 63.0 °F 93% 30.09 in 8.0 mi SSW 3.5 mph - N/A   Clear
9:53 AM 70.0 °F - 64.9 °F 84% 30.10 in 8.0 mi Calm Calm - N/A   Partly Cloudy
10:53 AM 73.0 °F - 64.9 °F 76% 30.09 in 10.0 mi SSW 6.9 mph - N/A   Clear
11:53 AM 75.0 °F - 64.0 °F 69% 30.09 in 10.0 mi South 3.5 mph - N/A   Partly Cloudy
12:53 PM 77.0 °F - 64.0 °F 64% 30.08 in 10.0 mi Calm Calm - N/A   Mostly Cloudy
1:53 PM 80.1 °F 81.5 °F 63.0 °F 56% 30.06 in 10.0 mi Calm Calm - N/A   Clear
2:53 PM 80.1 °F 81.2 °F 62.1 °F 54% 30.04 in 10.0 mi Variable 4.6 mph - N/A   Clear
3:53 PM 82.0 °F 83.0 °F 62.1 °F 51% 30.02 in 10.0 mi Calm Calm - N/A   Clear
4:53 PM 82.0 °F 83.4 °F 64.0 °F 54% 30.01 in 10.0 mi Calm Calm - N/A   Clear
5:53 PM 80.1 °F 82.3 °F 66.9 °F 64% 30.01 in 10.0 mi West 4.6 mph - N/A   Clear
6:53 PM 79.0 °F - 70.0 °F 74% 29.99 in 10.0 mi Calm Calm - N/A   Clear
7:53 PM 75.9 °F - 71.1 °F 85% 29.99 in 10.0 mi East 8.1 mph - N/A   Clear
8:53 PM 70.0 °F - 64.0 °F 81% 29.99 in 10.0 mi SE 8.1 mph - N/A   Partly Cloudy
9:53 PM 69.1 °F - 64.9 °F 87% 30.01 in 10.0 mi Calm Calm - N/A   Clear
10:53 PM 66.9 °F - 66.0 °F 97% 30.00 in 10.0 mi Calm Calm - N/A   Clear
11:53 PM 66.9 °F - 66.0 °F 97% 30.02 in 10.0 mi Calm Calm - N/A   Clear